Retour au catalogue

CZ-2C DEB

ActifPO
NORAD 37770·DEBRIS·🇨🇳 China

Lancé Jul 29, 2011 depuis Jiuquan Satellite Launch Center

Loading…

Prochains Passages (prochaines 24 heures)

TLE

FraisSource: Space-Track

Époque: Sep 14, 2026, 08:00 UTC

1 37770U 11039F   26257.33366749  .00028962  00000-0  12867-2 0  9994
2 37770  97.9196 196.1901 0029132  58.4417  92.9089 15.21107060807094

Suivez CZ-2C DEB en temps réel avec AllMySat

Download on the App Store